[[[{"header":{"parameterUnit":"kt","parameterCategory":2,"dx":1,"dy":1,"la1":30.253999710083008,"la2":30.299108505249023,"lo1":-89.0895004272461,"lo2":-89.04439544677734,"nx":28,"ny":28,"refTime":"2022-10-02T21:00:00:Z","depth":"0","parameterNumber":2,"parameterNumberName":"U-component_of_CURRENTS"},"data":[-0.2033,-0.1931,-0.184,-0.1678,-0.1595,-0.15,-0.1487,-0.154,-0.1601,-0.172,-0.1774,-0.1804,-0.1753,-0.1548,-0.1222,-0.1037,-0.0908,-0.0857,-0.0799,-0.0961,-0.0983,-0.1004,-0.1051,-0.0796,-0.0796,-0.065,-0.0649,-0.0648,-0.2035,-0.1942,-0.1846,-0.1708,-0.1631,-0.1608,-0.1574,-0.1567,-0.1638,-0.175,-0.1831,-0.1792,-0.1655,-0.145,-0.1204,-0.1053,-0.0989,-0.0963,-0.1035,-0.0984,-0.1132,-0.1179,-0.0947,-0.0947,-0.0947,-0.0947,-0.0947,-0.0947,-0.2011,-0.1961,-0.185,-0.176,-0.1695,-0.1645,-0.16,-0.1619,-0.1642,-0.1717,-0.175,-0.1806,-0.167,-0.1487,-0.1368,-0.1153,-0.1217,-0.1163,-0.1178,-0.1211,-0.1181,-0.1331,-0.1137,-0.1137,-0.1138,-0.1138,-0.1138,0,-0.1971,-0.1915,-0.1868,-0.1771,-0.1714,-0.1659,-0.1604,-0.1614,-0.1588,-0.1632,-0.1686,-0.1724,-0.164,-0.16,-0.1449,-0.1411,-0.1387,-0.1379,-0.1353,-0.1427,-0.1427,-0.1406,-0.1665,-0.1422,-0.1424,-0.1426,-0.1427,-0.1428,-0.1857,-0.1874,-0.1783,-0.1746,-0.1734,-0.1672,-0.1623,-0.1579,-0.1574,-0.1595,-0.1627,-0.1622,-0.1679,-0.1622,-0.1597,-0.1518,-0.1547,-0.1431,-0.1551,-0.1493,-0.1547,-0.1593,-0.1548,-0.145,-0.1447,-0.1445,-0.1443,0,-0.1779,-0.1782,-0.1789,-0.1732,-0.1708,-0.1667,-0.1602,-0.1572,-0.1563,-0.1597,-0.1614,-0.1677,-0.1684,-0.1724,-0.1751,-0.1766,-0.1702,-0.1716,-0.1675,-0.1703,-0.1605,-0.1631,-0.1398,-0.132,-0.1536,-0.1533,-0.1531,0,-0.1688,-0.1722,-0.1689,-0.1727,-0.1672,-0.1666,-0.1613,-0.1595,-0.1598,-0.1617,-0.1668,-0.1733,-0.1845,-0.1866,-0.1911,-0.189,-0.1903,-0.1932,-0.1963,-0.1974,-0.1973,-0.1966,-0.1998,-0.2015,-0.2017,-0.2019,-0.202,0,-0.1618,-0.1681,-0.1688,-0.1722,-0.1741,-0.1702,-0.1675,-0.1669,-0.1674,-0.1703,-0.1748,-0.1799,-0.1903,-0.1902,-0.2028,-0.2093,-0.2016,-0.2143,-0.2048,-0.2044,-0.2037,-0.2039,-0.1781,-0.2022,-0.2023,-0.2024,-0.2024,0,-0.1622,-0.1657,-0.1694,-0.1715,-0.1736,-0.1731,-0.1712,-0.1716,-0.1754,-0.1806,-0.1875,-0.2009,-0.2051,-0.2173,-0.2187,-0.2253,-0.2253,-0.2312,-0.2308,-0.2302,-0.2437,-0.2268,-0.2013,-0.1986,-0.2296,-0.2298,-0.2301,0,-0.1576,-0.1651,-0.1696,-0.174,-0.1809,-0.1884,-0.1841,-0.1897,-0.1961,-0.2015,-0.2131,-0.2222,-0.2335,-0.242,-0.2403,-0.2549,-0.2446,-0.2553,-0.2529,-0.2526,-0.2528,-0.2294,-0.2275,-0.2064,-0.2336,-0.2333,-0.233,0,-0.1582,-0.1709,-0.1735,-0.1788,-0.193,-0.1998,-0.1964,-0.2057,-0.2063,-0.2202,-0.2236,-0.2342,-0.2467,-0.2513,-0.2652,-0.2632,-0.2506,-0.2712,-0.2715,-0.2645,-0.2396,-0.2349,-0.232,-0.2597,-0.2594,-0.2591,-0.2358,0,-0.1694,-0.1748,-0.1759,-0.1894,-0.196,-0.2052,-0.2189,-0.2235,-0.2331,-0.2463,-0.2515,-0.2703,-0.2808,-0.2808,-0.2924,-0.2835,-0.2839,-0.2946,-0.3027,-0.2875,-0.2788,-0.2765,-0.3082,-0.3085,-0.3087,-0.309,0,0,-0.1734,-0.1798,-0.1924,-0.2,-0.209,-0.2303,-0.2361,-0.246,-0.272,-0.2755,-0.2834,-0.301,-0.3104,-0.3122,-0.3091,-0.3133,-0.3104,-0.3096,-0.2941,-0.2924,-0.2909,-0.282,-0.2796,-0.3094,-0.3095,-0.3096,-0.3097,0,-0.1821,-0.1873,-0.1888,-0.2024,-0.2247,-0.2393,-0.2405,-0.2686,-0.2775,-0.2871,-0.3044,-0.3117,-0.3195,-0.3279,-0.3316,-0.3182,-0.3206,-0.3138,-0.2978,-0.2965,-0.2944,-0.2927,-0.2835,-0.2811,-0.3103,-0.3103,-0.3102,0,-0.1931,-0.2048,-0.206,-0.2248,-0.2421,-0.252,-0.2734,-0.2873,-0.2928,-0.3176,-0.3245,-0.3364,-0.3459,-0.3461,-0.345,-0.3482,-0.3301,-0.3378,-0.3363,-0.3336,-0.3328,-0.3303,-0.3281,-0.3575,-0.3577,-0.3578,0,0,-0.2012,-0.2028,-0.2282,-0.2294,-0.2373,-0.266,-0.2771,-0.2933,-0.3122,-0.3204,-0.3333,-0.3419,-0.3479,-0.3494,-0.3562,-0.3526,-0.3531,-0.3434,-0.3412,-0.3394,-0.3357,-0.3343,-0.3319,-0.3584,-0.3584,-0.3584,0,0,-0.2082,-0.2294,-0.2382,-0.2399,-0.2596,-0.2919,-0.2975,-0.3129,-0.3292,-0.3303,-0.3482,-0.3515,-0.352,-0.3561,-0.3627,-0.3529,-0.3618,-0.3609,-0.3514,-0.3488,-0.3466,-0.3419,-0.3732,0,0,0,0,0,-0.2303,-0.2253,-0.2329,-0.2366,-0.2659,-0.2862,-0.2919,-0.3166,-0.3247,-0.328,-0.3436,-0.3485,-0.3628,-0.3693,-0.371,-0.3599,-0.3655,-0.3642,-0.363,-0.3502,-0.3473,-0.3448,0,0,0,0,0,0,-0.2319,-0.2355,-0.2335,-0.2628,-0.2701,-0.2864,-0.3044,-0.3114,-0.3249,-0.3277,-0.3467,-0.3491,-0.3614,-0.3689,-0.3703,-0.3594,-0.3728,-0.365,-0.3639,-0.363,-0.3492,-0.3468,-0.3448,0,0,0,0,0,-0.2334,-0.2364,-0.2731,-0.2638,-0.27,-0.3025,-0.3045,-0.3105,-0.322,-0.3413,-0.345,-0.3392,-0.3611,-0.363,-0.3698,-0.3584,-0.3719,-0.3724,-0.3643,-0.3635,-0.3627,-0.3481,0,0,0,0,0,0,-0.2345,-0.2461,-0.2754,-0.2789,-0.2639,-0.3024,-0.3077,-0.3095,-0.3349,-0.3392,-0.334,-0.3357,-0.3608,-0.3623,-0.3637,-0.3573,-0.3711,-0.3716,-0.3719,-0.3637,-0.363,-0.3624,0,0,0,0,0,0,-0.2448,-0.2485,-0.2772,-0.2758,-0.2795,-0.3022,-0.3068,-0.3108,-0.3339,-0.326,-0.3287,-0.3343,-0.3503,-0.3619,-0.363,-0.3695,-0.3705,-0.371,-0.3714,-0.3716,-0.3631,-0.3626,0,0,0,0,0,0,-0.2472,-0.2506,-0.2751,-0.2779,-0.2811,-0.3227,-0.3058,-0.3293,-0.3485,-0.3239,-0.3491,-0.3493,-0.3488,-0.351,-0.3624,-0.3684,-0.3692,-0.3706,-0.3709,-0.3711,-0.3713,0,0,0,0,0,0,0,-0.2492,-0.2164,-0.2539,-0.2796,-0.2824,-0.3112,-0.3122,-0.3132,-0.3485,-0.3488,-0.349,-0.3492,-0.3678,-0.3683,-0.3689,-0.3675,0,0,-0.3705,-0.3707,0,0,0,0,0,0,0,0,-0.2161,-0.2164,-0.254,-0.2547,-0.2554,-0.3113,-0.3122,-0.313,-0.3486,-0.3488,-0.3489,-0.3491,-0.3679,-0.3684,-0.3688,0,0,0,0,0,0,0,0,0,0,0,0,0,0,0,-0.2541,-0.2547,0,-0.3114,-0.3121,-0.3128,-0.3486,-0.3488,-0.3489,-0.3491,-0.3681,-0.3684,-0.3688,0,0,0,0,0,0,0,0,0,0,0,0,0,0,0,0,0,0,0,0,0,0,0,0,0,0,0,0,0,0,0,0,0,0,0,0,0,0,0,0,0,0,0,0,0,0,0,0,0,0,0,0,0,0,0,0,0,0,0,0,0,0,0,0,0,0,0,0,0]}],[{"header":{"parameterUnit":"kt","parameterCategory":2,"dx":1,"dy":1,"la1":30.253999710083008,"la2":30.299108505249023,"lo1":-89.0895004272461,"lo2":-89.04439544677734,"nx":28,"ny":28,"refTime":"2022-10-02T21:00:00:Z","depth":"0","parameterNumber":3,"parameterNumberName":"V-component_of_CURRENTS"},"data":[-0.2464,-0.2442,-0.253,-0.2702,-0.2841,-0.2949,-0.2965,-0.2935,-0.2839,-0.2596,-0.2442,-0.2298,-0.2008,-0.1309,-0.0877,-0.0665,-0.0079,-0.0077,0.03,-0.0214,-0.0203,-0.0192,-0.022,-0.0284,-0.0283,0.0999,0.1009,0.1017,-0.2578,-0.2603,-0.2705,-0.2835,-0.2959,-0.3044,-0.3068,-0.3038,-0.2959,-0.2787,-0.2586,-0.2275,-0.1867,-0.1432,-0.108,-0.0839,-0.0438,-0.0618,-0.0222,0.001,-0.0647,-0.0706,-0.0875,-0.0875,-0.0875,-0.0875,-0.0875,-0.0875,-0.2752,-0.2762,-0.284,-0.2945,-0.3043,-0.311,-0.3109,-0.3085,-0.3015,-0.2812,-0.2637,-0.2336,-0.1933,-0.1369,-0.1077,-0.0784,-0.0501,-0.0672,-0.05,-0.0238,-0.0044,-0.1024,-0.0907,-0.0906,-0.0905,-0.0904,-0.0903,0,-0.2862,-0.2913,-0.294,-0.3062,-0.3108,-0.3153,-0.3159,-0.312,-0.3039,-0.2918,-0.2667,-0.2423,-0.1876,-0.1459,-0.1059,-0.0774,-0.0306,-0.0519,-0.0374,-0.0278,-0.0257,0.0038,-0.0627,-0.0477,-0.0474,-0.0471,-0.0469,-0.0468,-0.2995,-0.298,-0.3085,-0.3119,-0.3142,-0.3172,-0.3193,-0.3154,-0.3097,-0.2854,-0.2734,-0.2318,-0.2007,-0.1297,-0.0907,-0.05,-0.0149,-0.0433,-0.0384,-0.0518,-0.0306,-0.0073,0.0117,-0.043,-0.0435,-0.0439,-0.0442,0,-0.3083,-0.3086,-0.3088,-0.3146,-0.3166,-0.3186,-0.3187,-0.3149,-0.3054,-0.2876,-0.2776,-0.242,-0.1934,-0.1489,-0.0779,-0.0642,-0.0095,-0.0141,-0.0476,-0.0417,-0.0448,-0.0335,0.0145,0.0384,-0.0219,-0.0223,-0.0227,0,-0.3174,-0.3148,-0.3169,-0.3189,-0.3198,-0.3221,-0.3182,-0.3163,-0.3036,-0.2911,-0.2687,-0.2415,-0.1796,-0.1402,-0.104,-0.0612,-0.0395,-0.0329,-0.0227,-0.0305,-0.0342,-0.01,0.0027,0.0135,0.0134,0.0134,0.0134,0,-0.32,-0.3212,-0.3176,-0.3213,-0.3246,-0.3239,-0.3262,-0.3205,-0.3154,-0.2917,-0.2802,-0.2272,-0.1896,-0.1482,-0.0983,-0.0976,-0.0365,-0.0227,-0.0261,-0.0285,-0.0173,-0.02,-0.0026,0.0134,0.0133,0.0133,0.0133,0,-0.3233,-0.324,-0.3223,-0.3211,-0.3248,-0.3265,-0.3283,-0.3265,-0.311,-0.3027,-0.2684,-0.2396,-0.1864,-0.1765,-0.1048,-0.116,-0.0905,-0.0619,-0.0603,-0.0666,-0.0584,-0.0774,-0.0652,-0.0553,-0.0531,-0.0535,-0.0538,0,-0.3255,-0.3242,-0.3228,-0.3264,-0.3307,-0.3403,-0.3372,-0.3362,-0.3311,-0.3167,-0.2728,-0.2315,-0.2122,-0.1808,-0.1533,-0.0971,-0.0838,-0.0983,-0.0443,-0.0434,-0.0786,-0.0647,-0.0728,-0.0705,-0.0588,-0.0583,-0.0579,0,-0.3251,-0.324,-0.326,-0.3258,-0.3398,-0.3491,-0.3469,-0.3472,-0.3427,-0.3257,-0.3067,-0.233,-0.2158,-0.1783,-0.1362,-0.11,-0.0935,-0.0968,-0.0945,-0.1147,-0.0482,-0.0699,-0.0688,-0.0677,-0.0669,-0.0662,-0.0619,0,-0.3189,-0.3196,-0.3261,-0.3292,-0.3393,-0.352,-0.3593,-0.3602,-0.3596,-0.3555,-0.3071,-0.2545,-0.2001,-0.1763,-0.1491,-0.1028,-0.1065,-0.0854,-0.0901,-0.0745,-0.0747,-0.0717,-0.0998,-0.0993,-0.0989,-0.0986,0,0,-0.3183,-0.3162,-0.3261,-0.331,-0.3421,-0.36,-0.3648,-0.3679,-0.3614,-0.3519,-0.3498,-0.2582,-0.2161,-0.1509,-0.1414,-0.1153,-0.1069,-0.1214,-0.0783,-0.0763,-0.0742,-0.0741,-0.0717,-0.0979,-0.0977,-0.0976,-0.0975,0,-0.3132,-0.3209,-0.3197,-0.3314,-0.3523,-0.3607,-0.3652,-0.3798,-0.3796,-0.3561,-0.3242,-0.2803,-0.2203,-0.1797,-0.1485,-0.115,-0.1032,-0.0967,-0.108,-0.076,-0.0746,-0.073,-0.0729,-0.071,-0.0965,-0.0966,-0.0966,0,-0.3102,-0.317,-0.3187,-0.3336,-0.3491,-0.3572,-0.3678,-0.3852,-0.3844,-0.3508,-0.3307,-0.2914,-0.2345,-0.1891,-0.1644,-0.1645,-0.1054,-0.1132,-0.1138,-0.1181,-0.085,-0.083,-0.0812,-0.108,-0.1083,-0.1086,0,0,-0.3072,-0.3072,-0.3262,-0.3353,-0.3445,-0.3621,-0.3731,-0.3802,-0.3705,-0.3646,-0.3374,-0.2946,-0.2474,-0.2221,-0.1807,-0.1381,-0.1271,-0.1175,-0.1169,-0.1167,-0.1209,-0.0879,-0.0856,-0.1098,-0.1098,-0.1099,0,0,-0.3095,-0.3209,-0.3245,-0.3334,-0.3503,-0.3711,-0.3827,-0.3879,-0.3683,-0.3627,-0.3289,-0.3165,-0.2679,-0.2398,-0.2603,-0.1817,-0.1799,-0.1747,-0.2099,-0.2085,-0.2079,-0.2259,-0.2466,0,0,0,0,0,-0.3153,-0.3188,-0.3218,-0.3264,-0.3483,-0.3684,-0.3721,-0.3863,-0.3882,-0.3913,-0.3573,-0.3431,-0.241,-0.2587,-0.2466,-0.2312,-0.1254,-0.1227,-0.1201,-0.1542,-0.1532,-0.1524,0,0,0,0,0,0,-0.3172,-0.3211,-0.3225,-0.3421,-0.3482,-0.3677,-0.3707,-0.3741,-0.388,-0.3887,-0.3509,-0.3418,-0.3169,-0.263,-0.2524,-0.2384,-0.2501,-0.1243,-0.122,-0.1199,-0.1539,-0.1531,-0.1524,0,0,0,0,0,-0.3189,-0.3222,-0.351,-0.3424,-0.3475,-0.3703,-0.3702,-0.3732,-0.3798,-0.3499,-0.3433,-0.3916,-0.3178,-0.3061,-0.2566,-0.2439,-0.2571,-0.2534,-0.1228,-0.121,-0.1193,-0.1535,0,0,0,0,0,0,-0.3202,-0.3201,-0.3526,-0.3554,-0.3423,-0.3694,-0.3723,-0.3723,-0.3382,-0.3354,-0.3871,-0.3874,-0.3182,-0.309,-0.3003,-0.2475,-0.2629,-0.259,-0.2566,-0.1214,-0.12,-0.1187,0,0,0,0,0,0,-0.3191,-0.3218,-0.3538,-0.3526,-0.3552,-0.3686,-0.3712,-0.3311,-0.3345,-0.3749,-0.3765,-0.3871,-0.3079,-0.3111,-0.3041,-0.2434,-0.2673,-0.2636,-0.2611,-0.2594,-0.1202,-0.1191,0,0,0,0,0,0,-0.3208,-0.3233,-0.3516,-0.3536,-0.3557,-0.3847,-0.3299,-0.3341,-0.3904,-0.3734,-0.3904,-0.3905,-0.3082,-0.3026,-0.3069,-0.2494,-0.2449,-0.2672,-0.2647,-0.2629,-0.2617,0,0,0,0,0,0,0,-0.3222,-0.2986,-0.3412,-0.3544,-0.3562,-0.3825,-0.3828,-0.383,-0.3904,-0.3904,-0.3904,-0.3905,-0.2885,-0.2844,-0.2803,-0.2543,0,0,-0.2676,-0.2658,0,0,0,0,0,0,0,0,-0.2983,-0.2985,-0.3414,-0.3422,-0.3431,-0.3826,-0.3828,-0.383,-0.3904,-0.3904,-0.3904,-0.3904,-0.2874,-0.2841,-0.2808,0,0,0,0,0,0,0,0,0,0,0,0,0,0,0,-0.3414,-0.3422,0,-0.3826,-0.3827,-0.3829,-0.3904,-0.3904,-0.3904,-0.3904,-0.2865,-0.2838,-0.281,0,0,0,0,0,0,0,0,0,0,0,0,0,0,0,0,0,0,0,0,0,0,0,0,0,0,0,0,0,0,0,0,0,0,0,0,0,0,0,0,0,0,0,0,0,0,0,0,0,0,0,0,0,0,0,0,0,0,0,0,0,0,0,0,0,0,0,0,0]}]],[[{"header":{"parameterUnit":"kt","parameterCategory":2,"dx":1,"dy":1,"la1":30.253999710083008,"la2":30.299108505249023,"lo1":-89.0895004272461,"lo2":-89.04439544677734,"nx":28,"ny":28,"refTime":"2022-10-02T21:00:00:Z","depth":"2","parameterNumber":2,"parameterNumberName":"U-component_of_CURRENTS"},"data":[-0.25,-0.2351,-0.2272,-0.2106,-0.2037,-0.1968,-0.1938,-0.198,-0.1958,-0.1903,-0.1795,-0.1768,-0.1505,-0.1177,-0.0983,-0.0838,-0.0946,-0.0771,-0.1128,-0.1242,-0.1278,-0.1252,-0.1264,0,0,0,0,0,-0.254,-0.2437,-0.2348,-0.2259,-0.2191,-0.2239,-0.2218,-0.2215,-0.2222,-0.2176,-0.2185,-0.1832,-0.163,-0.1357,-0.1061,-0.0979,-0.0989,-0.0909,-0.0962,-0.0999,-0.1033,-0.1017,-0.0661,-0.066,-0.0659,-0.0658,0,0,-0.264,-0.2555,-0.2477,-0.2399,-0.238,-0.2367,-0.2354,-0.24,-0.239,-0.2302,-0.232,-0.2192,-0.1871,-0.1536,-0.1408,-0.123,-0.1361,-0.133,-0.1347,-0.1369,-0.1364,-0.134,-0.1103,-0.1105,-0.1107,-0.1108,-0.111,0,-0.2732,-0.2639,-0.263,-0.2564,-0.2554,-0.2558,-0.256,-0.2528,-0.2509,-0.2475,-0.2373,-0.2307,-0.2022,-0.1793,-0.1619,-0.1587,-0.1613,-0.1531,-0.1832,-0.1643,-0.1623,-0.1684,-0.1719,-0.1442,-0.1446,-0.1449,-0.1451,-0.1453,-0.2748,-0.2716,-0.2701,-0.2684,-0.2712,-0.2708,-0.2704,-0.2723,-0.2652,-0.2545,-0.2446,-0.2248,-0.213,-0.1959,-0.1822,-0.1764,-0.1896,-0.1626,-0.1706,-0.1996,-0.2054,-0.2078,-0.21,-0.1496,-0.1491,-0.1486,-0.1483,0,-0.2749,-0.2769,-0.2773,-0.2832,-0.2854,-0.2824,-0.285,-0.2801,-0.2738,-0.2587,-0.2512,-0.2328,-0.2181,-0.2116,-0.2046,-0.2054,-0.2034,-0.2023,-0.1877,-0.1891,-0.2112,-0.213,-0.1885,-0.188,-0.1876,-0.1873,-0.187,0,-0.2787,-0.2817,-0.2815,-0.2861,-0.2871,-0.2908,-0.2882,-0.2834,-0.2734,-0.2638,-0.253,-0.2422,-0.2306,-0.2226,-0.2272,-0.2188,-0.2209,-0.222,-0.2252,-0.2153,-0.2142,-0.2493,-0.2516,-0.2311,-0.2312,-0.2313,-0.2314,0,-0.2809,-0.2828,-0.2834,-0.2861,-0.2959,-0.2915,-0.2969,-0.2881,-0.2821,-0.264,-0.2578,-0.2438,-0.2361,-0.2351,-0.2355,-0.2416,-0.228,-0.2398,-0.2327,-0.2324,-0.2206,-0.2197,-0.2315,-0.2315,-0.2316,-0.2316,-0.2316,0,-0.2846,-0.2893,-0.2836,-0.2981,-0.2992,-0.299,-0.3015,-0.2963,-0.2826,-0.2754,-0.2613,-0.2607,-0.2468,-0.2566,-0.2473,-0.2528,-0.2549,-0.2573,-0.2571,-0.2524,-0.2654,-0.2448,-0.218,-0.2602,-0.2605,-0.2607,-0.2609,0,-0.3,-0.2942,-0.3003,-0.3014,-0.3043,-0.3122,-0.3067,-0.3028,-0.3001,-0.2909,-0.2824,-0.2759,-0.2795,-0.2777,-0.2719,-0.2764,-0.2686,-0.2771,-0.2771,-0.2769,-0.2753,-0.2524,-0.2381,-0.223,-0.264,-0.2637,-0.2635,0,-0.313,-0.3181,-0.3186,-0.3213,-0.3299,-0.3343,-0.323,-0.3225,-0.3192,-0.3086,-0.2987,-0.2881,-0.2906,-0.2874,-0.2909,-0.2854,-0.2742,-0.2926,-0.2928,-0.2908,-0.2655,-0.2579,-0.2551,-0.2811,-0.2808,-0.2805,-0.2659,0,-0.3266,-0.3312,-0.3299,-0.333,-0.3356,-0.3392,-0.3445,-0.3389,-0.3423,-0.3427,-0.3279,-0.3278,-0.3202,-0.3156,-0.3198,-0.3045,-0.3071,-0.3152,-0.3225,-0.3073,-0.3027,-0.3007,-0.3279,-0.3281,-0.3283,-0.3285,0,0,-0.3431,-0.3474,-0.3584,-0.3538,-0.3601,-0.375,-0.3717,-0.3715,-0.3737,-0.3682,-0.3708,-0.3571,-0.355,-0.3425,-0.3361,-0.3349,-0.3337,-0.3301,-0.3137,-0.312,-0.3105,-0.3054,-0.3033,-0.3289,-0.329,-0.329,-0.3291,0,-0.352,-0.364,-0.3602,-0.3635,-0.3705,-0.3811,-0.3805,-0.3886,-0.387,-0.3788,-0.3854,-0.378,-0.365,-0.3622,-0.3594,-0.3399,-0.3416,-0.3338,-0.318,-0.3157,-0.3137,-0.312,-0.3067,-0.3046,-0.3296,-0.3296,-0.3296,0,-0.3632,-0.3739,-0.3763,-0.3869,-0.3911,-0.3917,-0.4043,-0.4071,-0.4043,-0.4128,-0.4021,-0.4012,-0.3976,-0.3831,-0.3756,-0.3782,-0.3501,-0.3568,-0.3554,-0.3526,-0.3507,-0.3483,-0.3461,-0.3751,-0.3753,-0.3754,0,0,-0.368,-0.3732,-0.3868,-0.39,-0.3921,-0.4027,-0.4062,-0.4119,-0.4159,-0.4156,-0.4129,-0.4081,-0.4026,-0.3957,-0.3899,-0.3742,-0.375,-0.3624,-0.3603,-0.3585,-0.3548,-0.3524,-0.3499,-0.376,-0.376,-0.3761,0,0,-0.3712,-0.3894,-0.3919,-0.3995,-0.4035,-0.4184,-0.4179,-0.4247,-0.4225,-0.4222,-0.4248,-0.4235,-0.4099,-0.4067,-0.4153,-0.3871,-0.3958,-0.3939,-0.389,-0.3863,-0.3841,-0.3822,-0.4189,0,0,0,0,0,-0.385,-0.3877,-0.3896,-0.393,-0.41,-0.4163,-0.4179,-0.4276,-0.4333,-0.4285,-0.4295,-0.4295,-0.4108,-0.4186,-0.4164,-0.4026,-0.3838,-0.3824,-0.3811,-0.3713,-0.3685,-0.3661,0,0,0,0,0,0,-0.3864,-0.3902,-0.3899,-0.4056,-0.4098,-0.4165,-0.4279,-0.4301,-0.4337,-0.4344,-0.4305,-0.4295,-0.4301,-0.4195,-0.4176,-0.4044,-0.4195,-0.3833,-0.3821,-0.3811,-0.3703,-0.368,-0.366,0,0,0,0,0,-0.3877,-0.3908,-0.4157,-0.4055,-0.4091,-0.4233,-0.4277,-0.4297,-0.4295,-0.4326,-0.4322,-0.4367,-0.4301,-0.4282,-0.4184,-0.4052,-0.4208,-0.4201,-0.3825,-0.3816,-0.3808,-0.3692,0,0,0,0,0,0,-0.3886,-0.3889,-0.4166,-0.4181,-0.4067,-0.4226,-0.4251,-0.4293,-0.427,-0.4276,-0.4389,-0.4394,-0.4301,-0.4286,-0.4271,-0.4053,-0.4219,-0.4212,-0.4207,-0.3818,-0.3811,-0.3804,0,0,0,0,0,0,-0.3876,-0.39,-0.4172,-0.4181,-0.4197,-0.4219,-0.4243,-0.4164,-0.426,-0.4325,-0.4336,-0.439,-0.4273,-0.4288,-0.4277,-0.4155,-0.4227,-0.422,-0.4215,-0.4212,-0.3812,-0.3807,0,0,0,0,0,0,-0.3888,-0.3908,-0.4176,-0.4188,-0.4202,-0.4361,-0.414,-0.4264,-0.4414,-0.4316,-0.4419,-0.442,-0.4271,-0.4263,-0.4281,-0.4164,-0.4157,-0.4227,-0.4222,-0.4219,-0.4217,0,0,0,0,0,0,0,-0.3897,-0.3735,-0.4102,-0.4194,-0.4206,-0.4326,-0.4328,-0.4329,-0.4415,-0.4417,-0.4418,-0.442,-0.4266,-0.4259,-0.4251,-0.4171,0,0,-0.4228,-0.4224,0,0,0,0,0,0,0,0,-0.3728,-0.3733,-0.4103,-0.4107,-0.4112,-0.4327,-0.4328,-0.4329,-0.4415,-0.4416,-0.4418,-0.4419,-0.4264,-0.4258,-0.4252,0,0,0,0,0,0,0,0,0,0,0,0,0,0,0,-0.4103,-0.4107,0,-0.4327,-0.4328,-0.4329,-0.4415,-0.4416,-0.4418,-0.4419,-0.4263,-0.4258,-0.4253,0,0,0,0,0,0,0,0,0,0,0,0,0,0,0,0,0,0,0,0,0,0,0,0,0,0,0,0,0,0,0,0,0,0,0,0,0,0,0,0,0,0,0,0,0,0,0,0,0,0,0,0,0,0,0,0,0,0,0,0,0,0,0,0,0,0,0,0,0]}],[{"header":{"parameterUnit":"kt","parameterCategory":2,"dx":1,"dy":1,"la1":30.253999710083008,"la2":30.299108505249023,"lo1":-89.0895004272461,"lo2":-89.04439544677734,"nx":28,"ny":28,"refTime":"2022-10-02T21:00:00:Z","depth":"2","parameterNumber":3,"parameterNumberName":"V-component_of_CURRENTS"},"data":[-0.1069,-0.122,-0.1258,-0.1507,-0.165,-0.1908,-0.2043,-0.2075,-0.1987,-0.1762,-0.1409,-0.0962,-0.0273,0.0268,0.0728,0.1088,0.1026,0.1111,0.072,0.0834,0.0807,0.1141,0.1104,0,0,0,0,0,-0.1051,-0.1109,-0.1221,-0.1435,-0.159,-0.1657,-0.1821,-0.19,-0.1985,-0.1804,-0.1704,-0.1028,-0.034,0.0105,0.0734,0.1026,0.1097,0.1103,0.1257,0.1237,0.1218,0.1204,0.1421,0.1421,0.1421,0.142,0,0,-0.0953,-0.1049,-0.1244,-0.139,-0.1518,-0.165,-0.1721,-0.1802,-0.1863,-0.1911,-0.1789,-0.148,-0.1001,-0.0177,0.0223,0.0581,0.0553,0.0854,0.0853,0.0846,0.0812,0.0567,0.0925,0.0922,0.092,0.0918,0.0916,0,-0.0923,-0.1071,-0.12,-0.1348,-0.1463,-0.1573,-0.1648,-0.1725,-0.1826,-0.1856,-0.186,-0.1741,-0.1266,-0.0661,-0.0147,0.0212,0.0475,0.0606,0.0309,0.0886,0.0634,0.0727,0.0689,0.1028,0.1025,0.1024,0.1022,0.1021,-0.0938,-0.1048,-0.1284,-0.1364,-0.1435,-0.1547,-0.159,-0.1663,-0.1785,-0.1833,-0.1849,-0.1676,-0.1551,-0.0864,-0.0397,0.0113,0.0157,0.0548,0.0671,0.0149,0.0248,0.0221,0.0194,0.0995,0.0999,0.1001,0.1004,0,-0.0868,-0.1069,-0.1242,-0.1402,-0.143,-0.1525,-0.1609,-0.1686,-0.1764,-0.1838,-0.1837,-0.1822,-0.148,-0.1141,-0.0493,-0.0254,0.0214,0.0326,0.0299,0.0421,0.0219,0.019,0.0479,0.0477,0.0476,0.0475,0.0474,0,-0.084,-0.0965,-0.1263,-0.1316,-0.1416,-0.1569,-0.1655,-0.1734,-0.182,-0.1869,-0.1892,-0.183,-0.137,-0.1077,-0.0706,-0.0238,-0.0085,0.0119,0.0248,0.0418,0.0412,0.0365,0.0352,0.0466,0.0464,0.0463,0.0463,0,-0.0686,-0.1041,-0.1255,-0.1348,-0.1526,-0.162,-0.1657,-0.1836,-0.1921,-0.1983,-0.2044,-0.1711,-0.1475,-0.1064,-0.0673,-0.065,-0.0083,0.0081,0.0181,0.0167,0.054,0.0547,0.0461,0.0461,0.0461,0.0461,0.046,0,-0.0692,-0.0822,-0.1201,-0.1268,-0.1367,-0.1536,-0.1682,-0.1843,-0.1943,-0.2067,-0.1975,-0.1848,-0.1478,-0.1391,-0.0752,-0.0864,-0.0584,-0.0314,-0.0295,-0.0266,-0.0147,0.0106,0.0223,-0.0139,-0.0143,-0.0147,-0.0151,0,-0.0346,-0.0766,-0.0871,-0.1166,-0.1362,-0.1522,-0.1633,-0.1874,-0.2051,-0.2163,-0.1897,-0.1746,-0.1616,-0.1426,-0.1188,-0.0699,-0.0554,-0.072,-0.011,-0.0098,-0.0261,-0.0205,0.0012,0.015,-0.0203,-0.0198,-0.0194,0,-0.0128,-0.0453,-0.052,-0.0638,-0.1019,-0.1242,-0.1465,-0.1743,-0.1823,-0.2084,-0.2115,-0.1709,-0.1638,-0.1367,-0.1042,-0.0814,-0.065,-0.0663,-0.064,-0.0699,-0.0154,-0.0271,-0.0248,-0.0387,-0.038,-0.0373,-0.0235,0,-0.0096,-0.0217,-0.033,-0.066,-0.0899,-0.1169,-0.1455,-0.1711,-0.1881,-0.2069,-0.1941,-0.1676,-0.1415,-0.1272,-0.1055,-0.0719,-0.0712,-0.051,-0.0451,-0.0416,-0.037,-0.0339,-0.0633,-0.0628,-0.0624,-0.062,0,0,0.018,0.0025,-0.0126,-0.0414,-0.0579,-0.0873,-0.1171,-0.1398,-0.1808,-0.1863,-0.1918,-0.1557,-0.131,-0.0858,-0.0849,-0.0724,-0.0608,-0.0738,-0.0444,-0.0427,-0.0409,-0.0363,-0.0338,-0.0613,-0.0612,-0.061,-0.0609,0,0.0183,0.0186,0.0024,-0.0248,-0.067,-0.0865,-0.0986,-0.149,-0.1667,-0.1854,-0.1627,-0.1438,-0.1274,-0.0974,-0.0745,-0.0697,-0.0506,-0.0594,-0.0733,-0.0419,-0.0408,-0.0395,-0.0351,-0.0331,-0.0599,-0.0599,-0.06,0,0.0245,0.0125,0.0099,-0.0243,-0.0519,-0.0816,-0.0964,-0.1332,-0.1541,-0.1369,-0.158,-0.1372,-0.0989,-0.0837,-0.074,-0.0706,-0.0438,-0.0516,-0.0529,-0.0554,-0.0223,-0.0211,-0.02,-0.0351,-0.0352,-0.0353,0,0,0.0201,0.0167,-0.0189,-0.0273,-0.0436,-0.0834,-0.1048,-0.1278,-0.1416,-0.15,-0.1491,-0.1298,-0.1015,-0.0913,-0.0732,-0.0612,-0.0469,-0.0504,-0.0515,-0.0526,-0.0557,-0.0233,-0.022,-0.0356,-0.0356,-0.0357,0,0,0.0154,-0.0055,-0.0132,-0.0212,-0.0586,-0.0999,-0.1168,-0.1378,-0.1508,-0.1463,-0.1301,-0.1246,-0.1079,-0.0926,-0.1004,-0.0677,-0.0602,-0.0584,-0.0841,-0.0852,-0.0863,-0.0955,-0.0826,0,0,0,0,0,0.0002,-0.0008,-0.0073,-0.0121,-0.0518,-0.0945,-0.1038,-0.1306,-0.1341,-0.1545,-0.1421,-0.1282,-0.0902,-0.0969,-0.0922,-0.0857,-0.0404,-0.0396,-0.0388,-0.0683,-0.0697,-0.0708,0,0,0,0,0,0,-0.0018,-0.0062,-0.0078,-0.0434,-0.0531,-0.0939,-0.0942,-0.1026,-0.1327,-0.1353,-0.1324,-0.1277,-0.1135,-0.098,-0.094,-0.0881,-0.0839,-0.0401,-0.0394,-0.0387,-0.0688,-0.0699,-0.0709,0,0,0,0,0,-0.0035,-0.0072,-0.0569,-0.0449,-0.0532,-0.091,-0.0937,-0.1008,-0.1303,-0.114,-0.1131,-0.1491,-0.1142,-0.1092,-0.0955,-0.0903,-0.0865,-0.0851,-0.0396,-0.039,-0.0385,-0.0693,0,0,0,0,0,0,-0.0048,-0.0238,-0.0601,-0.0648,-0.0381,-0.0906,-0.097,-0.0991,-0.1067,-0.108,-0.1266,-0.1277,-0.1147,-0.1107,-0.107,-0.0919,-0.0887,-0.0872,-0.0863,-0.0392,-0.0387,-0.0383,0,0,0,0,0,0,-0.0221,-0.0273,-0.0627,-0.0524,-0.0564,-0.0899,-0.0955,-0.0812,-0.1036,-0.1184,-0.1207,-0.1264,-0.0916,-0.1118,-0.1089,-0.0888,-0.0903,-0.0889,-0.088,-0.0874,-0.0388,-0.0385,0,0,0,0,0,0,-0.0254,-0.03,-0.0516,-0.0546,-0.0581,-0.1154,-0.0756,-0.0984,-0.1467,-0.1157,-0.1457,-0.1452,-0.0904,-0.0896,-0.1102,-0.0916,-0.0896,-0.0903,-0.0893,-0.0887,-0.0882,0,0,0,0,0,0,0,-0.0281,0.017,-0.029,-0.0564,-0.0595,-0.1081,-0.1097,-0.1113,-0.1466,-0.1462,-0.1458,-0.1454,-0.0981,-0.0966,-0.0951,-0.0939,0,0,-0.0904,-0.0897,0,0,0,0,0,0,0,0,0.0175,0.0171,-0.0291,-0.03,-0.0308,-0.1084,-0.1096,-0.1109,-0.1466,-0.1462,-0.1459,-0.1456,-0.0977,-0.0965,-0.0953,0,0,0,0,0,0,0,0,0,0,0,0,0,0,0,-0.0292,-0.0299,0,-0.1085,-0.1096,-0.1107,-0.1465,-0.1462,-0.146,-0.1457,-0.0974,-0.0964,-0.0954,0,0,0,0,0,0,0,0,0,0,0,0,0,0,0,0,0,0,0,0,0,0,0,0,0,0,0,0,0,0,0,0,0,0,0,0,0,0,0,0,0,0,0,0,0,0,0,0,0,0,0,0,0,0,0,0,0,0,0,0,0,0,0,0,0,0,0,0,0]}]],[[{"header":{"parameterUnit":"kt","parameterCategory":2,"dx":1,"dy":1,"la1":30.253999710083008,"la2":30.299108505249023,"lo1":-89.0895004272461,"lo2":-89.04439544677734,"nx":28,"ny":28,"refTime":"2022-10-02T21:00:00:Z","depth":"4","parameterNumber":2,"parameterNumberName":"U-component_of_CURRENTS"},"data":[-0.1252,-0.1245,-0.1277,-0.1062,-0.1007,-0.0969,-0.1024,-0.1137,-0.1123,-0.1285,-0.1263,-0.1394,-0.1376,-0.1458,-0.1395,-0.1411,-0.1744,-0.1555,-0.1552,-0.221,-0.2254,-0.2292,-0.2334,0,0,0,0,0,-0.1365,-0.1352,-0.1307,-0.1289,-0.1205,-0.1266,-0.1322,-0.1423,-0.1586,-0.142,-0.1642,-0.1481,-0.1476,-0.1521,-0.1437,-0.1599,-0.1888,-0.1504,-0.2061,-0.2237,-0.2285,-0.231,0,0,0,0,0,0,-0.1512,-0.15,-0.1532,-0.1533,-0.1483,-0.1454,-0.1572,-0.153,-0.1648,-0.1958,-0.1727,-0.1911,-0.1979,-0.1947,-0.1753,-0.174,-0.1879,-0.2001,-0.2058,-0.2106,-0.2079,-0.2048,-0.138,0,0,0,0,0,-0.1642,-0.1675,-0.1719,-0.1748,-0.1738,-0.1774,-0.1862,-0.1892,-0.2149,-0.2442,-0.2351,-0.2449,-0.2243,-0.2291,-0.2139,-0.2053,-0.2672,-0.2372,-0.2406,-0.2746,-0.2769,-0.259,-0.2618,-0.2467,-0.2473,-0.2477,-0.248,0,-0.1762,-0.1754,-0.1891,-0.1868,-0.1958,-0.2104,-0.2147,-0.2488,-0.2539,-0.2834,-0.2782,-0.2908,-0.3065,-0.2621,-0.2717,-0.2617,-0.2539,-0.2492,-0.2853,-0.285,-0.2652,-0.267,-0.2685,-0.2518,-0.2515,-0.2512,-0.2509,0,-0.1813,-0.1882,-0.1909,-0.2082,-0.2151,-0.2232,-0.2431,-0.2532,-0.2967,-0.3104,-0.3289,-0.3616,-0.3549,-0.3599,-0.3451,-0.3363,-0.3145,-0.2907,-0.3343,-0.3135,-0.2754,-0.2754,-0.2582,-0.2568,-0.2556,-0.2546,-0.2537,0,-0.1905,-0.1941,-0.2065,-0.2106,-0.22,-0.2307,-0.2499,-0.2747,-0.3039,-0.3124,-0.3712,-0.3775,-0.4063,-0.3938,-0.394,-0.3576,-0.369,-0.3418,-0.3198,-0.3639,-0.3634,-0.358,-0.3568,-0.3706,-0.3708,-0.371,-0.3711,0,-0.1959,-0.2056,-0.208,-0.2099,-0.223,-0.2312,-0.2417,-0.2699,-0.2843,-0.3371,-0.3543,-0.3891,-0.4044,-0.4054,-0.3985,-0.4079,-0.3785,-0.3784,-0.329,-0.3257,-0.3586,-0.357,-0.3713,-0.3714,-0.3714,-0.3715,-0.3716,0,-0.2039,-0.2138,-0.2162,-0.2234,-0.2255,-0.2294,-0.2502,-0.2639,-0.2958,-0.3156,-0.3468,-0.3679,-0.4012,-0.4004,-0.4056,-0.4078,-0.3965,-0.3859,-0.3838,-0.3503,-0.3143,-0.3284,-0.3432,-0.3432,-0.3432,-0.3432,-0.3431,0,-0.2069,-0.2157,-0.22,-0.2219,-0.2224,-0.2304,-0.2425,-0.2553,-0.2734,-0.2962,-0.3181,-0.3466,-0.3591,-0.3822,-0.3867,-0.3891,-0.3861,-0.3908,-0.3502,-0.3494,-0.3141,-0.3203,-0.3674,-0.3428,-0.3428,-0.3428,-0.3429,0,-0.206,-0.215,-0.2172,-0.2181,-0.2253,-0.2262,-0.2394,-0.2498,-0.2656,-0.2801,-0.2998,-0.332,-0.3502,-0.3607,-0.3737,-0.3754,-0.3826,-0.3699,-0.3688,-0.3577,-0.3596,-0.3235,-0.3201,-0.3656,-0.366,-0.3663,-0.3426,0,-0.2039,-0.2099,-0.2141,-0.2226,-0.2231,-0.2265,-0.234,-0.2439,-0.2521,-0.2594,-0.2853,-0.3024,-0.3232,-0.3257,-0.3379,-0.3584,-0.3479,-0.334,-0.3242,-0.3381,-0.3247,-0.325,-0.3172,-0.3169,-0.3167,-0.3165,0,0,-0.1999,-0.2077,-0.2141,-0.2201,-0.2201,-0.223,-0.2239,-0.2319,-0.2411,-0.2499,-0.2522,-0.2803,-0.2889,-0.3108,-0.3275,-0.3205,-0.3124,-0.3284,-0.3315,-0.3332,-0.3347,-0.3228,-0.3234,-0.3161,-0.316,-0.3159,-0.3158,0,-0.2001,-0.2082,-0.2141,-0.2157,-0.2212,-0.2214,-0.2223,-0.227,-0.2347,-0.245,-0.253,-0.2698,-0.2783,-0.2921,-0.2979,-0.3151,-0.3042,-0.3155,-0.3399,-0.3292,-0.3312,-0.333,-0.3218,-0.3224,-0.3152,-0.3152,-0.3153,0,-0.1968,-0.2049,-0.207,-0.2146,-0.2161,-0.217,-0.2168,-0.2213,-0.2262,-0.2284,-0.2416,-0.2509,-0.2587,-0.2744,-0.2809,-0.2756,-0.2926,-0.2907,-0.2921,-0.3076,-0.2965,-0.2989,-0.3011,-0.2726,-0.2725,-0.2724,0,0,-0.1985,-0.2065,-0.2082,-0.2144,-0.2155,-0.2154,-0.2158,-0.2184,-0.2241,-0.2272,-0.2338,-0.2433,-0.2541,-0.2592,-0.2683,-0.2779,-0.2727,-0.2858,-0.2878,-0.2894,-0.3054,-0.2952,-0.2976,-0.2719,-0.2719,-0.2719,0,0,-0.1974,-0.2052,-0.206,-0.2142,-0.2138,-0.2148,-0.2171,-0.2163,-0.2235,-0.2284,-0.2318,-0.2342,-0.2499,-0.2496,-0.2432,-0.2669,-0.2584,-0.2597,-0.2677,-0.2702,-0.2722,-0.2904,-0.2417,0,0,0,0,0,-0.1978,-0.204,-0.2046,-0.2061,-0.2129,-0.2137,-0.2138,-0.2162,-0.2175,-0.2187,-0.2282,-0.2272,-0.2503,-0.2447,-0.246,-0.2561,-0.266,-0.267,-0.268,-0.2808,-0.2835,-0.2857,0,0,0,0,0,0,-0.1984,-0.2007,-0.2042,-0.2063,-0.2076,-0.2137,-0.2157,-0.2164,-0.2176,-0.2183,-0.2257,-0.2273,-0.2315,-0.244,-0.2452,-0.255,-0.2414,-0.2664,-0.2673,-0.2681,-0.2817,-0.2839,-0.2857,0,0,0,0,0,-0.1989,-0.2007,-0.2134,-0.2059,-0.2071,-0.2099,-0.216,-0.2165,-0.2184,-0.2239,-0.2255,-0.2206,-0.2312,-0.2328,-0.2447,-0.2546,-0.2406,-0.241,-0.267,-0.2677,-0.2683,-0.2828,0,0,0,0,0,0,-0.1992,-0.1997,-0.2134,-0.2134,-0.2077,-0.2096,-0.211,-0.2166,-0.2242,-0.2254,-0.219,-0.2195,-0.2309,-0.2323,-0.2334,-0.2547,-0.2399,-0.2404,-0.2406,-0.2675,-0.2681,-0.2686,0,0,0,0,0,0,-0.1986,-0.1999,-0.2135,-0.2157,-0.216,-0.2093,-0.2106,-0.2145,-0.2246,-0.2192,-0.2196,-0.2192,-0.232,-0.2318,-0.2328,-0.2382,-0.2395,-0.2399,-0.2402,-0.2403,-0.268,-0.2684,0,0,0,0,0,0,-0.199,-0.2,-0.2157,-0.2159,-0.2162,-0.2169,-0.2129,-0.222,-0.2202,-0.219,-0.2207,-0.221,-0.2317,-0.2326,-0.2323,-0.2373,-0.238,-0.2395,-0.2398,-0.2399,-0.2401,0,0,0,0,0,0,0,-0.1993,-0.1944,-0.213,-0.2162,-0.2164,-0.2135,-0.2136,-0.2136,-0.2202,-0.2204,-0.2207,-0.2209,-0.2371,-0.2376,-0.238,-0.2365,0,0,-0.2394,-0.2396,0,0,0,0,0,0,0,0,-0.1938,-0.1943,-0.213,-0.213,-0.2129,-0.2136,-0.2136,-0.2136,-0.2203,-0.2204,-0.2206,-0.2208,-0.2372,-0.2376,-0.238,0,0,0,0,0,0,0,0,0,0,0,0,0,0,0,-0.213,-0.213,0,-0.2136,-0.2136,-0.2136,-0.2203,-0.2204,-0.2206,-0.2207,-0.2373,-0.2376,-0.2379,0,0,0,0,0,0,0,0,0,0,0,0,0,0,0,0,0,0,0,0,0,0,0,0,0,0,0,0,0,0,0,0,0,0,0,0,0,0,0,0,0,0,0,0,0,0,0,0,0,0,0,0,0,0,0,0,0,0,0,0,0,0,0,0,0,0,0,0,0]}],[{"header":{"parameterUnit":"kt","parameterCategory":2,"dx":1,"dy":1,"la1":30.253999710083008,"la2":30.299108505249023,"lo1":-89.0895004272461,"lo2":-89.04439544677734,"nx":28,"ny":28,"refTime":"2022-10-02T21:00:00:Z","depth":"4","parameterNumber":3,"parameterNumberName":"V-component_of_CURRENTS"},"data":[-0.0518,-0.0624,-0.0674,-0.0827,-0.0919,-0.1099,-0.1186,-0.1246,-0.1188,-0.1199,-0.1075,-0.0979,-0.074,-0.0962,-0.0465,-0.0407,-0.0284,-0.009,-0.0081,0.0027,0.0011,-0.0003,-0.0133,0,0,0,0,0,-0.0518,-0.0562,-0.0718,-0.0902,-0.1063,-0.1143,-0.1306,-0.1384,-0.1422,-0.1307,-0.1347,-0.1142,-0.0832,-0.0751,-0.0502,-0.0517,-0.0267,-0.0206,-0.0114,0.0017,-0.0,-0.0121,0,0,0,0,0,0,-0.0517,-0.0607,-0.0719,-0.0879,-0.1068,-0.1193,-0.1327,-0.1341,-0.1425,-0.1424,-0.1362,-0.1218,-0.1132,-0.0811,-0.0643,-0.0434,-0.0292,-0.0153,-0.016,-0.0174,-0.0291,-0.0172,-0.0086,0,0,0,0,0,-0.0482,-0.0558,-0.0684,-0.0864,-0.103,-0.123,-0.1382,-0.143,-0.1527,-0.1589,-0.1473,-0.1289,-0.1081,-0.0845,-0.0662,-0.0441,-0.0384,-0.0263,-0.0268,-0.0239,-0.0133,-0.0153,-0.0169,-0.0065,-0.0068,-0.0069,-0.007,0,-0.043,-0.0505,-0.075,-0.086,-0.0969,-0.1187,-0.1307,-0.149,-0.1538,-0.1595,-0.1551,-0.1418,-0.1284,-0.0963,-0.0812,-0.0499,-0.046,-0.0311,-0.0283,-0.0161,-0.0175,-0.0187,-0.0197,-0.0084,-0.0083,-0.0082,-0.008,0,-0.0412,-0.0489,-0.0668,-0.0869,-0.0959,-0.1112,-0.1354,-0.1457,-0.1555,-0.1599,-0.1573,-0.1477,-0.1276,-0.1128,-0.094,-0.0734,-0.0572,-0.0477,-0.0587,-0.0608,-0.0219,-0.0224,-0.0107,-0.0101,-0.0097,-0.0094,-0.0091,0,-0.0403,-0.052,-0.0671,-0.0739,-0.0947,-0.1049,-0.1252,-0.1367,-0.1465,-0.1514,-0.1444,-0.1412,-0.124,-0.1123,-0.0919,-0.067,-0.079,-0.0459,-0.0461,-0.0655,-0.0657,-0.0586,-0.058,-0.0659,-0.0661,-0.0662,-0.0664,0,-0.0348,-0.0525,-0.064,-0.0699,-0.0879,-0.0987,-0.1099,-0.1222,-0.131,-0.1357,-0.1363,-0.1297,-0.1223,-0.1104,-0.0866,-0.0828,-0.0736,-0.0741,-0.0517,-0.0502,-0.0595,-0.0586,-0.0666,-0.0667,-0.0667,-0.0668,-0.0668,0,-0.0335,-0.0396,-0.0546,-0.0729,-0.0767,-0.0885,-0.1045,-0.1147,-0.1217,-0.1232,-0.122,-0.1133,-0.1066,-0.0976,-0.0844,-0.0853,-0.0712,-0.0663,-0.0658,-0.0486,-0.0501,-0.0404,-0.0542,-0.0543,-0.0544,-0.0544,-0.0545,0,-0.025,-0.0366,-0.0404,-0.0575,-0.0647,-0.0679,-0.08,-0.0868,-0.0904,-0.097,-0.0942,-0.0992,-0.0848,-0.083,-0.0819,-0.074,-0.0704,-0.0751,-0.0619,-0.061,-0.0465,-0.057,-0.0803,-0.0554,-0.0553,-0.0552,-0.0551,0,-0.0171,-0.0262,-0.0275,-0.0347,-0.0394,-0.0442,-0.0553,-0.0633,-0.071,-0.072,-0.0797,-0.0846,-0.0748,-0.0762,-0.0716,-0.0733,-0.0707,-0.061,-0.0611,-0.045,-0.0692,-0.0587,-0.057,-0.0795,-0.0797,-0.0798,-0.0558,0,-0.0163,-0.0207,-0.0224,-0.0263,-0.031,-0.0347,-0.0371,-0.0422,-0.0414,-0.0421,-0.0517,-0.0515,-0.0547,-0.0608,-0.052,-0.0612,-0.0494,-0.0566,-0.0456,-0.0594,-0.0467,-0.0463,-0.047,-0.0467,-0.0465,-0.0463,0,0,-0.0077,-0.0097,-0.0046,-0.0094,-0.0127,-0.0066,-0.0139,-0.0161,-0.0171,-0.0196,-0.015,-0.0265,-0.0269,-0.0392,-0.0401,-0.046,-0.0384,-0.0342,-0.0549,-0.0559,-0.0568,-0.0454,-0.0452,-0.0458,-0.0457,-0.0457,-0.0456,0,-0.0038,-0.0001,-0.0024,-0.0046,-0.0032,-0.0025,-0.0037,-0.0019,-0.002,-0.0101,-0.0053,-0.01,-0.0177,-0.0203,-0.023,-0.0412,-0.0285,-0.0438,-0.0454,-0.0528,-0.0542,-0.0553,-0.0444,-0.0445,-0.045,-0.045,-0.0451,0,0.0019,0.0061,0.0061,0.0075,0.0093,0.0037,0.0134,0.0128,0.0072,0.0168,0.0087,0.0091,0.0069,-0.0032,-0.0074,-0.0025,-0.0167,-0.0169,-0.0183,-0.0092,-0.0158,-0.0176,-0.0192,0.0027,0.0029,0.003,0,0,0.0053,0.0065,0.0096,0.0092,0.009,0.0129,0.0122,0.0156,0.0169,0.0171,0.0178,0.0165,0.0114,0.0094,0.006,-0.0037,0.0037,-0.0111,-0.0133,-0.0152,-0.0073,-0.0143,-0.0161,0.0036,0.0036,0.0037,0,0,0.0081,0.0141,0.0167,0.0163,0.0161,0.0206,0.0184,0.0212,0.0201,0.0225,0.0266,0.0269,0.0182,0.0193,0.0268,0.008,0.0171,0.0156,0.0084,0.0056,0.0034,0.0146,0.0359,0,0,0,0,0,0.0156,0.0132,0.0154,0.0161,0.0203,0.0189,0.0188,0.0234,0.0285,0.0251,0.0271,0.0325,0.023,0.0299,0.0293,0.0203,0.0113,0.01,0.0087,-0.003,-0.006,-0.0085,0,0,0,0,0,0,0.016,0.0171,0.0155,0.0205,0.0214,0.0192,0.0284,0.0294,0.029,0.03,0.0319,0.0326,0.0361,0.0305,0.0299,0.0212,0.0361,0.0108,0.0096,0.0086,-0.004,-0.0065,-0.0085,0,0,0,0,0,0.0163,0.0172,0.0239,0.0204,0.0212,0.026,0.0287,0.0296,0.0292,0.0329,0.0337,0.0328,0.0359,0.0357,0.0302,0.0213,0.0365,0.0363,0.01,0.0091,0.0083,-0.0052,0,0,0,0,0,0,0.0165,0.0166,0.024,0.0242,0.0235,0.0261,0.0272,0.0297,0.0322,0.033,0.034,0.0348,0.0356,0.0355,0.0353,0.0209,0.0369,0.0366,0.0365,0.0093,0.0086,0.008,0,0,0,0,0,0,0.0162,0.0168,0.0241,0.0277,0.0284,0.0261,0.0272,0.0237,0.0321,0.0332,0.0339,0.0343,0.0359,0.0353,0.0352,0.0295,0.0371,0.0369,0.0368,0.0367,0.0088,0.0082,0,0,0,0,0,0,0.0164,0.017,0.0277,0.0282,0.0288,0.0309,0.0229,0.027,0.0355,0.0329,0.0364,0.0368,0.0356,0.0356,0.0351,0.0294,0.0294,0.0371,0.037,0.0369,0.0368,0,0,0,0,0,0,0,0.0166,0.0133,0.0232,0.0286,0.0291,0.0258,0.0258,0.0258,0.0355,0.0359,0.0363,0.0366,0.0384,0.0382,0.0379,0.0293,0,0,0.0372,0.037,0,0,0,0,0,0,0,0,0.013,0.0132,0.0232,0.0232,0.0233,0.0258,0.0258,0.0258,0.0356,0.0359,0.0362,0.0365,0.0384,0.0382,0.038,0,0,0,0,0,0,0,0,0,0,0,0,0,0,0,0.0232,0.0232,0,0.0258,0.0258,0.0258,0.0356,0.0359,0.0361,0.0363,0.0383,0.0381,0.038,0,0,0,0,0,0,0,0,0,0,0,0,0,0,0,0,0,0,0,0,0,0,0,0,0,0,0,0,0,0,0,0,0,0,0,0,0,0,0,0,0,0,0,0,0,0,0,0,0,0,0,0,0,0,0,0,0,0,0,0,0,0,0,0,0,0,0,0,0]}]]]